Tracking 25734 objects as of 27-May-2022
HD Live streaming from Space Station
objects crossing your sky now

COSMOS 1818 COOLANT

Track COSMOS 1818 COOLANT now!
10-day predictions


NORAD ID: 36937
Int'l Code: 1987-011R
Perigee: 770.1 km
Apogee: 797.0 km
Inclination: 65.0 °
Period: 100.4 minutes
Semi major axis: 7154 km
RCS: 0.0037 m2 (small)
Launch date: February 1, 1987
Source: Commonwealth of Independent States (former USSR) (CIS)
Launch site: TYURATAM MISSILE AND SPACE COMPLEX (TTMTR)

Note: This is SATELLITE DEBRIS
aabbcc
Your satellite tracking list
Your tracking list is empty




NASA's NSSDC Master Catalog

Two Line Element Set (TLE):
1 36937U 87011R   22136.20816465  .00000574  00000-0  23782-3 0  9992
2 36937  65.0147  70.1334 0018786 258.0758 101.8222 14.34601359456575
Source of the keplerian elements: AFSPC